Regional Weather Roundup
Issued by NWS

Home | Current Version | Previous Version | Graphics & Text | Print | Product List | Glossary Off
Versions: 1 2 3 4 5 6 7 8 9 10 11 12 13 14 15 16 17 18 19 20 21 22 23 24 25 26 27 28 29 30 31 32 33 34 35 36 37 38 39 40 41 42 43 44 45 46 47 48 49 50

000
ASUS43 KTOP 281708
RWRKS

WEATHER ROUNDUP FOR KANSAS
NATIONAL WEATHER SERVICE GOODLAND KS
1100 AM CST SUN DEC 28 2014

NOTE:  "FAIR" INDICATES FEW OR NO CLOUDS BELOW 12,000 FEET WITH NO
SIGNIFICANT WEATHER AND/OR OBSTRUCTIONS TO VISIBILITY.

KSZ001>006-013>018-027>032-041>047-281800-
NORTHWEST KANSAS

CITY           SKY/WX    TMP DP  RH WIND       PRES   REMARKS
GOODLAND       MOSUNNY   27  16  63 CALM      30.00F
HAYS           SUNNY     30  18  59 SW5       30.13S
HILL CITY      SUNNY     22  15  75 W5        30.11F
RUSSELL        SUNNY     29  24  82 S7        30.13F
$$

KSZ061>065-074>080-084>089-281800-
SOUTHWEST KANSAS

CITY           SKY/WX    TMP DP  RH WIND       PRES   REMARKS
DODGE CITY     SUNNY     34  23  64 S14       30.10S WCI  25
ELKHART          N/A     29  19  66 W1          N/A
GARDEN CITY    FAIR      29  22  75 S10       30.05F WCI  20
GREAT BEND     SUNNY     32  21  64 S8        30.16F
LIBERAL        MOSUNNY   28  19  69 S6        30.07F
PRATT          SUNNY     36  21  55 S10       30.16F WCI  28
$$

KSZ066>073-081>083-090>101-281800-
SOUTHEAST KANSAS

CITY           SKY/WX    TMP DP  RH WIND       PRES   REMARKS
CHANUTE        SUNNY     31  23  72 S3        30.26F
COFFEYVILLE    SUNNY     31  22  69 CALM      30.28F
HUTCHINSON     SUNNY     34  23  64 SW6       30.19F
MEDICINE LODGE   N/A     32  23  69 SE3       30.18F
NEWTON         SUNNY     34  19  55 SW8       30.20F
PARSONS        SUNNY     32  23  69 S5        30.28F
WICHITA INTL   SUNNY     34  22  61 S12       30.21F WCI  25
WICHITA JABRA  SUNNY     35  21  56 S9        30.20F
WICHITA MCCONL SUNNY     34  21  60 S9        30.21F
WINFIELD       SUNNY     33  23  66 S6        30.25F
$$

KSZ007>012-019>026-033>040-048>060-102>105-281800-
NORTHEAST KANSAS

CITY           SKY/WX    TMP DP  RH WIND       PRES   REMARKS
CONCORDIA      SUNNY     29  21  72 S5        30.16S
EMPORIA        SUNNY     33  24  69 VRB3      30.22F
LAWRENCE       SUNNY     31  21  66 VRB5      30.25F
MANHATTAN      SUNNY     29  23  78 SW7       30.22S
MARYSVILLE     SUNNY     30  23  74 SW7       30.17F
OLATHE IND     SUNNY     30  22  72 S9        30.25S
OLATHE EXE     SUNNY     30  21  69 S7        30.23F
SALINA         SUNNY     31  24  75 S6        30.20F
TOPEKA BILLARD SUNNY     32  20  61 VRB3      30.24F
TOPEKA FORBES  SUNNY     32  24  72 S6        30.22F
$$



USA.gov is the U.S. government's official web portal to all federal, state and local government web resources and services.